• In Latvia
  • List of Countries
  • For 7 days
  • Water Temperature
  • Satellite Maps
  • Weather Map
  • Weather Widgets
  • user-avatar
    Login

    Hourly Weather Townsville

    Today, 18 August, Friday

    Time Temperature Precipitation Wind Pressure Humidity
    00:00 +20°C° 0 mm 1 mps 754 mmHg 95%
    01:00 +20°C° 0 mm 1 mps 754 mmHg 95%
    02:00 +20°C° 0 mm 1 mps 754 mmHg 95%
    03:00 +20°C° 0 mm 1 mps 754 mmHg 96%
    04:00 +20°C° 0 mm 1 mps 754 mmHg 96%
    05:00 +20°C° 0 mm 1 mps 754 mmHg 96%
    06:00 +20°C° 0 mm 1 mps 755 mmHg 95%
    07:00 +20°C° 0 mm 1 mps 755 mmHg 95%
    08:00 +23°C° 0 mm 1 mps 755 mmHg 80%
    09:00 +27°C° 0 mm 1 mps 756 mmHg 65%
    10:00 +30°C° 0 mm 1 mps 756 mmHg 54%
    11:00 +31°C° 0 mm 1 mps 755 mmHg 48%
    12:00 +32°C° 0 mm 2 mps 755 mmHg 42%
    13:00 +35°C° 0 mm 2 mps 755 mmHg 36%
    14:00 +34°C° 0 mm 2 mps 754 mmHg 38%
    15:00 +34°C° 0 mm 2 mps 754 mmHg 40%
    16:00 +32°C° 0 mm 2 mps 754 mmHg 42%
    17:00 +30°C° 0 mm 2 mps 754 mmHg 54%
    18:00 +27°C° 0 mm 2 mps 754 mmHg 66%
    19:00 +24°C° 0 mm 2 mps 754 mmHg 78%
    20:00 +24°C° 0 mm 1 mps 755 mmHg 79%
    21:00 +23°C° 0 mm 1 mps 755 mmHg 81%
    22:00 +21°C° 0 mm 0 mps 755 mmHg 82%
    23:00 +20°C° 0 mm 0 mps 755 mmHg 83%

    Tomorrow, 19 August, Saturday

    Time Temperature Precipitation Wind Pressure Humidity
    00:00 +22°C° 0 mm 1 mps 756 mmHg 84%
    01:00 +22°C° 0 mm 1 mps 756 mmHg 85%
    02:00 +21°C° 0 mm 1 mps 756 mmHg 82%
    03:00 +20°C° 0 mm 2 mps 756 mmHg 78%
    04:00 +20°C° 0 mm 2 mps 756 mmHg 75%
    05:00 +20°C° 0 mm 3 mps 756 mmHg 64%
    06:00 +19°C° 0 mm 3 mps 756 mmHg 53%
    07:00 +19°C° 0 mm 4 mps 757 mmHg 43%
    08:00 +22°C° 0 mm 4 mps 757 mmHg 36%
    09:00 +25°C° 0 mm 5 mps 757 mmHg 29%
    10:00 +28°C° 0 mm 5 mps 758 mmHg 22%
    11:00 +29°C° 0 mm 5 mps 757 mmHg 20%
    12:00 +30°C° 0 mm 5 mps 757 mmHg 18%
    13:00 +33°C° 0 mm 5 mps 756 mmHg 16%
    14:00 +32°C° 0 mm 5 mps 756 mmHg 16%
    15:00 +32°C° 0 mm 5 mps 756 mmHg 17%
    16:00 +32°C° 0 mm 6 mps 755 mmHg 17%
    17:00 +28°C° 0 mm 5 mps 756 mmHg 25%
    18:00 +25°C° 0 mm 4 mps 756 mmHg 32%
    19:00 +21°C° 0 mm 3 mps 756 mmHg 40%
    20:00 +20°C° 0 mm 3 mps 757 mmHg 43%
    21:00 +19°C° 0 mm 3 mps 757 mmHg 47%
    22:00 +18°C° 0 mm 3 mps 758 mmHg 50%
    23:00 +17°C° 0 mm 3 mps 757 mmHg 49%

    Day after tomorrow, 20 August, Sunday

    Time Temperature Precipitation Wind Pressure Humidity
    00:00 +17°C° 0 mm 3 mps 757 mmHg 48%
    01:00 +16°C° 0 mm 3 mps 757 mmHg 48%
    02:00 +16°C° 0 mm 3 mps 757 mmHg 43%
    03:00 +14°C° 0 mm 3 mps 757 mmHg 38%
    04:00 +14°C° 0 mm 4 mps 757 mmHg 33%
    05:00 +14°C° 0 mm 4 mps 757 mmHg 32%
    06:00 +13°C° 0 mm 4 mps 758 mmHg 32%
    07:00 +13°C° 0 mm 5 mps 758 mmHg 31%
    08:00 +16°C° 0 mm 5 mps 758 mmHg 27%
    09:00 +19°C° 0 mm 5 mps 759 mmHg 22%
    10:00 +22°C° 0 mm 5 mps 759 mmHg 18%
    11:00 +25°C° 0 mm 5 mps 758 mmHg 16%
    12:00 +26°C° 0 mm 4 mps 757 mmHg 15%
    13:00 +28°C° 0 mm 4 mps 757 mmHg 13%
    14:00 +28°C° 0 mm 4 mps 756 mmHg 13%
    15:00 +28°C° 0 mm 4 mps 756 mmHg 13%
    16:00 +28°C° 0 mm 4 mps 755 mmHg 13%
    17:00 +25°C° 0 mm 4 mps 756 mmHg 23%
    18:00 +21°C° 0 mm 3 mps 756 mmHg 32%
    19:00 +18°C° 0 mm 3 mps 756 mmHg 42%
    20:00 +17°C° 0 mm 3 mps 757 mmHg 51%
    21:00 +17°C° 0 mm 3 mps 757 mmHg 60%
    22:00 +16°C° 0 mm 3 mps 758 mmHg 69%
    23:00 +15°C° 0 mm 4 mps 757 mmHg 72%

    21 August, Monday

    Time Temperature Precipitation Wind Pressure Humidity
    00:00 +14°C° 0 mm 4 mps 757 mmHg 76%
    01:00 +14°C° 0 mm 4 mps 757 mmHg 79%
    02:00 +13°C° 0 mm 4 mps 757 mmHg 76%
    03:00 +13°C° 0 mm 4 mps 756 mmHg 73%
    04:00 +12°C° 0 mm 4 mps 756 mmHg 71%
    05:00 +12°C° 0 mm 4 mps 757 mmHg 66%
    06:00 +12°C° 0 mm 3 mps 757 mmHg 61%
    07:00 +12°C° 0 mm 3 mps 758 mmHg 56%
    08:00 +16°C° 0 mm 3 mps 758 mmHg 51%
    09:00 +19°C° 0 mm 3 mps 758 mmHg 46%
    10:00 +23°C° 0 mm 4 mps 758 mmHg 42%
    11:00 +25°C° 0 mm 4 mps 757 mmHg 41%
    12:00 +26°C° 0 mm 4 mps 757 mmHg 40%
    13:00 +27°C° 0 mm 4 mps 756 mmHg 38%
    14:00 +27°C° 0 mm 3 mps 755 mmHg 42%
    15:00 +27°C° 0 mm 3 mps 755 mmHg 46%
    16:00 +26°C° 0 mm 3 mps 755 mmHg 50%
    17:00 +24°C° 0 mm 3 mps 755 mmHg 60%
    18:00 +21°C° 0 mm 3 mps 756 mmHg 69%
    19:00 +19°C° 0 mm 2 mps 756 mmHg 79%
    20:00 +19°C° 0 mm 2 mps 756 mmHg 84%
    21:00 +18°C° 0 mm 2 mps 757 mmHg 88%
    22:00 +18°C° 0 mm 2 mps 757 mmHg 93%
    23:00 +18°C° 0 mm 2 mps 757 mmHg 93%

    22 August, Tuesday

    Time Temperature Precipitation Wind Pressure Humidity
    00:00 +18°C° 0 mm 2 mps 757 mmHg 94%
    01:00 +19°C° 0 mm 2 mps 756 mmHg 94%
    02:00 +18°C° 0 mm 2 mps 756 mmHg 94%
    03:00 +18°C° 0 mm 2 mps 756 mmHg 95%
    04:00 +18°C° 0 mm 2 mps 756 mmHg 95%
    05:00 +18°C° 0 mm 2 mps 756 mmHg 95%
    06:00 +18°C° 0 mm 2 mps 757 mmHg 95%
    07:00 +19°C° 0 mm 2 mps 757 mmHg 95%
    08:00 +21°C° 0 mm 2 mps 757 mmHg 85%
    09:00 +24°C° 0 mm 2 mps 757 mmHg 74%
    10:00 +26°C° 0 mm 2 mps 758 mmHg 64%
    11:00 +27°C° 0 mm 2 mps 757 mmHg 61%
    12:00 +28°C° 0 mm 3 mps 756 mmHg 57%
    13:00 +28°C° 0 mm 3 mps 756 mmHg 54%
    14:00 +28°C° 0 mm 3 mps 755 mmHg 54%
    15:00 +28°C° 0 mm 3 mps 755 mmHg 55%
    16:00 +28°C° 0 mm 3 mps 755 mmHg 55%
    17:00 +26°C° 0 mm 3 mps 756 mmHg 64%
    18:00 +24°C° 0 mm 3 mps 756 mmHg 74%
    19:00 +21°C° 0 mm 3 mps 757 mmHg 83%
    20:00 +21°C° 0 mm 2 mps 757 mmHg 86%
    21:00 +20°C° 0 mm 2 mps 757 mmHg 89%
    22:00 +20°C° 0 mm 2 mps 758 mmHg 92%
    23:00 +20°C° 0 mm 2 mps 757 mmHg 93%

    23 August, Wednesday

    Time Temperature Precipitation Wind Pressure Humidity
    00:00 +19°C° 0 mm 2 mps 757 mmHg 93%
    01:00 +19°C° 0 mm 2 mps 757 mmHg 94%
    02:00 +19°C° 0 mm 2 mps 757 mmHg 94%
    03:00 +19°C° 0 mm 2 mps 757 mmHg 94%
    04:00 +19°C° 0 mm 2 mps 757 mmHg 94%
    05:00 +20°C° 0 mm 2 mps 757 mmHg 93%
    06:00 +20°C° 0 mm 2 mps 757 mmHg 92%
    07:00 +20°C° 0 mm 2 mps 758 mmHg 90%
    08:00 +23°C° 0 mm 2 mps 758 mmHg 80%
    09:00 +25°C° 0 mm 3 mps 758 mmHg 70%
    10:00 +27°C° 0 mm 3 mps 758 mmHg 60%
    11:00 +28°C° 0 mm 3 mps 757 mmHg 55%
    12:00 +29°C° 0 mm 3 mps 757 mmHg 49%
    13:00 +31°C° 0 mm 3 mps 756 mmHg 44%
    14:00 +30°C° 0 mm 3 mps 756 mmHg 47%
    15:00 +29°C° 0 mm 3 mps 756 mmHg 49%
    16:00 +28°C° 0 mm 3 mps 755 mmHg 51%
    17:00 +26°C° 0 mm 3 mps 756 mmHg 60%
    18:00 +25°C° 0 mm 3 mps 756 mmHg 69%
    19:00 +23°C° 0 mm 2 mps 757 mmHg 78%
    20:00 +21°C° 0 mm 2 mps 757 mmHg 82%
    21:00 +21°C° 0 mm 2 mps 757 mmHg 86%
    22:00 +20°C° 0 mm 2 mps 757 mmHg 90%
    23:00 +20°C° 0 mm 3 mps 757 mmHg 91%
    Show more